Regional Weather Roundup
Issued by NWS Charleston, WV

Home | Current Version | Previous Version | Text Only | Print | Product List | Glossary Off
Versions: 1 2 3 4 5 6 7 8 9 10 11 12 13 14 15 16 17 18 19 20 21 22 23 24 25 26 27 28 29 30 31 32 33 34 35 36 37 38 39 40 41 42 43 44 45 46 47 48 49 50

000
ASUS41 KRLX 191210
RWRRLX
West Virginia Regional Weather Roundup
National Weather Service Charleston WV
800 AM EDT SUN OCT 19 2014

Note: "fair" indicates few or no clouds below 12,000 feet with no
significant weather and/or obstructions to visibility.

WVZ003-191300-
Northern Panhandle of West Virginia

CITY           SKY/WX    TMP DP  RH WIND       PRES   REMARKS
WHEELING       PTCLDY    40  32  73 W7        30.14R
$$

WVZ009-191300-
Northwest West Virginia

CITY           SKY/WX    TMP DP  RH WIND       PRES   REMARKS
PARKERSBURG    MOCLDY    43  38  82 NW5       30.19S
$$

WVZ006-191300-
Western West Virginia

CITY           SKY/WX    TMP DP  RH WIND       PRES   REMARKS
HUNTINGTON     CLOUDY    46  42  86 NW3       30.20R
$$

WVZ015-191300-
West Central West Virginia

CITY           SKY/WX    TMP DP  RH WIND       PRES   REMARKS
CHARLESTON     CLOUDY    46  42  86 NW3       30.18R
$$

WVZ022-031-191300-
North Central West Virginia

CITY           SKY/WX    TMP DP  RH WIND       PRES   REMARKS
CLARKSBURG     MOCLDY    41  38  89 NW3       30.14R
MORGANTOWN     CLOUDY    44  30  57 NW5       30.14R
$$

WVZ025-035-042-045-191300-
Southern West Virginia

CITY           SKY/WX    TMP DP  RH WIND       PRES   REMARKS
BECKLEY        CLOUDY    41  38  89 N8        30.13R
LOGAN          CLOUDY    43  41  93 NW6       30.17R
BLUEFIELD      CLOUDY    42  37  82 NW6       30.13R
LEWISBURG      CLOUDY    44  33  65 NW10G16   30.10R
$$

WVZ047-191300-
Northern Mountains of West Virginia

CITY           SKY/WX    TMP DP  RH WIND       PRES   REMARKS
ELKINS         LGT RAIN  39  37  92 N7        30.12R
$$

WVZ052-191300-
Eastern Panhandle of West Virginia

CITY           SKY/WX    TMP DP  RH WIND       PRES   REMARKS
MARTINSBURG    CLOUDY    46  31  55 NW14G21   30.06R
PETERSBURG     PTCLDY   N/A N/A N/A NW6       30.11R
$$


USA.gov is the U.S. government's official web portal to all federal, state and local government web resources and services.